Location: Newark
(13.6797°N, 8.5297°E)
Time: 18:01:48
(UTC+00:00)

Courier 1B Rocket - Pass Details

Date: 24 January 2020
Orbit: 920 x 1202 km, 28.2° (Epoch: 22 February)

Event Time Altitude Azimuth Distance (km) Brightness Sun altitude
Rises 17:32:00 0° 295° (WNW) 3,582 8.7 -3.1°
Reaches altitude 10° 17:34:38 10° 294° (WNW) 2,619 8.0 -3.7°
Maximum altitude 17:40:54 82° 208° (SSW) 926 5.0 -5.1°
Drops below altitude 10° 17:47:10 10° 120° (ESE) 2,621 6.9 -6.6°
Sets 17:49:48 0° 120° (ESE) 3,585 7.6 -7.2°
